Location: Unspecified
(49.4000°N, 0.0000°E)
Time: 07:54:29
(UTC+00:00)

Tiros 1 despin weight - Visible Passes

Search period start: 04 April 2026 00:00
Search period end: 14 April 2026 00:00
Orbit: 555 x 593 km, 48.2° (Epoch: 29 March)

Date Brightness Start Highest point End Pass type
(mag) Time Alt. Az. Time Alt. Az. Time Alt. Az.
5 Apr ? 19:31:28 10° SSE 19:32:41 11° SE 19:32:57 11° SE visible
5 Apr ? 21:08:20 10° SW 21:09:10 15° SW 21:09:10 15° SW visible
6 Apr ? 19:31:47 10° S 19:34:27 16° SE 19:36:08 13° ESE visible
6 Apr ? 21:10:07 10° SW 21:12:19 27° SW 21:12:19 27° SW visible
7 Apr ? 19:32:55 10° SSW 19:36:15 22° SE 19:38:59 13° E visible
7 Apr ? 21:12:00 10° WSW 21:15:09 43° SW 21:15:09 43° SW visible
8 Apr ? 19:34:20 10° SSW 19:38:06 29° SSE 19:41:32 12° E visible
8 Apr ? 21:13:56 10° WSW 21:17:42 59° SSW 21:17:42 59° SSW visible
9 Apr ? 19:35:58 10° SW 19:39:58 38° SSE 19:43:53 11° E visible
9 Apr ? 21:15:54 10° WSW 21:20:02 72° SSW 21:20:02 72° SSW visible
10 Apr ? 19:37:43 10° SW 19:41:52 48° SSE 19:46:03 10° E visible
10 Apr ? 21:17:54 10° W 21:22:12 77° S 21:22:12 77° S visible
11 Apr ? 19:39:33 10° WSW 19:43:48 58° SSE 19:48:06 10° E visible
11 Apr ? 21:19:54 10° W 21:24:14 77° S 21:24:14 77° S visible
12 Apr ? 19:41:27 10° WSW 19:45:46 67° SSE 19:50:03 10° E visible
12 Apr ? 21:21:54 10° W 21:26:10 72° SSW 21:26:10 72° SSW visible
13 Apr ? 19:43:24 10° WSW 19:47:43 74° S 19:51:56 11° E visible
13 Apr ? 21:23:53 10° W 21:28:03 64° SSW 21:28:03 64° SSW visible
